Location: A�t Bou Chrif
(32.7193°N, 5.2385°W)
Time: 04:20:29
(UTC+00:00)

Cosmos 1980 Rocket - Pass Details

Date: 08 August 2020
Orbit: 829 x 849 km, 71.0° (Epoch: 20 September)

Event Time Altitude Azimuth Distance (km) Brightness Sun altitude
Rises 22:22:34 0° 336° (NNW) 3,408 6.4 -33.2°
Reaches altitude 10° 22:25:02 10° 334° (NNW) 2,467 5.4 -33.5°
Enters shadow 22:29:02 46° 316° (NW) 1,124 3.1 -33.9°
